Weather History for Lincoln, NE

Change the Weather History Date:

Friday, April 4, 2014

  Actual Average Record
Temperature  
Mean Temperature 39 °F 47 °F  
Max Temperature 49 °F 60 °F 94 °F (1929)
Min Temperature 29 °F 34 °F 13 °F (2002)
Degree Days  
Heating Degree Days 26 18  
Month to date heating degree days 107 74  
Since 1 July heating degree days 6081 5550  
Cooling Degree Days 0 0  
Month to date cooling degree days 0 0  
Year to date cooling degree days 0 1  
Moisture  
Dew Point 28 °F    
Average Humidity 62    
Maximum Humidity 82    
Minimum Humidity 42    
Precipitation  
Precipitation T in 0.07 in 1.00 in (1969)
Month to date precipitation 0.33 0.29  
Year to date precipitation 1.32 3.63  
Snow  
Snow T in 0.00 in - ()
Month to date snowfall T 0.3  
Since 1 July snowfall 17.7 24.8  
Snow Depth 0.00 in    
Sea Level Pressure  
Sea Level Pressure 30.04 in    
Wind  
Wind Speed 14 mph (NW)    
Max Wind Speed 26 mph    
Max Gust Speed 37 mph    
Visibility 9 miles    
Events Snow    
T = Trace of Precipitation, MM = Missing Value Source: NWS Daily Summary

Daily Weather History Graph

Daily Weather History Graph

Search for Another Location

Airport:

Trip Planner

Search our weather history database for the weather conditions in past years. The results will help you decide how hot, cold, wet, or windy it might be!

Date:

Astronomy

Apr. 04, 2014 Rise Set
Actual Time 7:05 AM CDT 7:55 PM CDT
Civil Twilight 6:37 AM CDT 8:22 PM CDT
Nautical Twilight 6:04 AM CDT 8:56 PM CDT
Astronomical Twilight 5:30 AM CDT 9:30 PM CDT
Moon 10:22 AM CDT (4/4) 12:16 AM CDT (4/4)
Length of Visible Light 13h 45m
Length of Day
12h 49m
Waxing Crescent, 25% of the Moon is Illuminated
Apr 4
Waxing Crescent
Apr 7
First Quarter
Apr 15
Full
Apr 22
Last Quarter
Apr 29
New

Hourly Weather History & Observations

Time (CDT) Temp. Windchill Dew Point Humidity Pressure Visibility Wind Dir Wind Speed Gust Speed Precip Events Conditions
12:10 AM 35.1 °F 24.5 °F 30.9 °F 85% 29.87 in 5.0 mi NW 18.4 mph - 0.00 in Snow Light Snow
12:18 AM 35.1 °F 23.8 °F 30.9 °F 85% 29.87 in 5.0 mi NW 20.7 mph - 0.00 in Snow Light Snow
12:54 AM 36.0 °F 24.4 °F 30.9 °F 82% 29.90 in 7.0 mi NW 23.0 mph 29.9 mph 0.01 in Snow Light Snow
1:52 AM 35.6 °F 24.0 °F 30.2 °F 81% 29.89 in 7.0 mi NW 23.0 mph 31.1 mph 0.00 in   Overcast
1:54 AM 36.0 °F 24.4 °F 30.9 °F 82% 29.91 in 7.0 mi NW 23.0 mph 31.1 mph 0.00 in   Overcast
2:12 AM 36.0 °F 25.0 °F 30.9 °F 82% 29.89 in 9.0 mi NW 20.7 mph 34.5 mph 0.00 in   Overcast
2:54 AM 37.0 °F 26.2 °F 32.0 °F 82% 29.91 in 9.0 mi NW 21.9 mph 29.9 mph 0.00 in   Overcast
3:08 AM 37.0 °F 25.4 °F 30.9 °F 79% 29.90 in 9.0 mi NW 25.3 mph 29.9 mph N/A   Overcast
3:38 AM 37.0 °F 25.6 °F 30.9 °F 79% 29.90 in 9.0 mi NW 24.2 mph 38.0 mph N/A   Overcast
3:54 AM 37.0 °F 26.4 °F 30.0 °F 76% 29.93 in 10.0 mi NW 20.7 mph 32.2 mph N/A   Overcast
4:44 AM 37.0 °F 25.9 °F 28.9 °F 73% 29.93 in 10.0 mi NW 23.0 mph 32.2 mph N/A   Overcast
4:54 AM 37.0 °F 26.7 °F 28.9 °F 73% 29.97 in 10.0 mi NW 19.6 mph 32.2 mph N/A   Overcast
5:54 AM 36.0 °F 25.0 °F 28.0 °F 73% 29.99 in 8.0 mi NW 20.7 mph 32.2 mph N/A   Overcast
6:54 AM 36.0 °F 26.3 °F 27.0 °F 70% 30.03 in 8.0 mi NW 16.1 mph - N/A   Overcast
7:11 AM 36.0 °F 26.3 °F 27.0 °F 70% 30.01 in 8.0 mi NNW 16.1 mph 24.2 mph N/A   Overcast
7:54 AM 36.0 °F 25.0 °F 26.1 °F 67% 30.05 in 8.0 mi NW 20.7 mph 26.5 mph N/A   Overcast
8:54 AM 36.0 °F 24.7 °F 26.1 °F 67% 30.07 in 9.0 mi NW 21.9 mph 29.9 mph N/A   Overcast
9:54 AM 37.0 °F 26.7 °F 25.0 °F 62% 30.10 in 10.0 mi NW 19.6 mph 29.9 mph N/A   Overcast
10:54 AM 39.0 °F 29.0 °F 26.1 °F 60% 30.13 in 10.0 mi NW 20.7 mph 29.9 mph N/A   Overcast
11:54 AM 43.0 °F 34.5 °F 27.0 °F 53% 30.12 in 10.0 mi NW 19.6 mph - N/A   Scattered Clouds
12:36 PM 44.1 °F 36.2 °F 27.0 °F 51% 30.12 in 10.0 mi NW 18.4 mph 31.1 mph N/A   Mostly Cloudy
12:54 PM 44.1 °F 35.9 °F 27.0 °F 51% 30.14 in 10.0 mi NW 19.6 mph - N/A   Mostly Cloudy
1:12 PM 45.0 °F 36.9 °F 27.0 °F 49% 30.12 in 10.0 mi NNW 20.7 mph 26.5 mph N/A   Mostly Cloudy
1:54 PM 44.1 °F 37.1 °F 25.0 °F 47% 30.14 in 10.0 mi NW 15.0 mph - N/A   Overcast
2:54 PM 46.0 °F 39.9 °F 25.0 °F 44% 30.14 in 10.0 mi NNW 13.8 mph - N/A   Mostly Cloudy
3:54 PM 46.9 °F - 25.0 °F 42% 30.13 in 10.0 mi WNW 16.1 mph - N/A   Mostly Cloudy
4:54 PM 46.9 °F - 25.0 °F 42% 30.13 in 10.0 mi NNW 11.5 mph - N/A   Scattered Clouds
5:54 PM 46.9 °F - 26.1 °F 44% 30.12 in 10.0 mi NW 9.2 mph - N/A   Scattered Clouds
6:54 PM 46.9 °F - 26.1 °F 44% 30.14 in 10.0 mi North 8.1 mph - N/A   Mostly Cloudy
7:54 PM 44.1 °F 40.8 °F 26.1 °F 49% 30.14 in 10.0 mi NNW 5.8 mph - N/A   Clear
8:54 PM 37.9 °F - 26.1 °F 62% 30.17 in 10.0 mi Calm Calm - N/A   Clear
9:54 PM 34.0 °F - 25.0 °F 70% 30.18 in 10.0 mi Calm Calm - N/A   Clear
10:54 PM 30.0 °F - 21.9 °F 72% 30.19 in 10.0 mi Calm Calm - N/A   Clear
11:54 PM 30.9 °F 27.5 °F 24.1 °F 76% 30.17 in 10.0 mi South 3.5 mph - N/A   Clear